N7DTY Weather Reports


time (UTC)temp
C
wind
direction
speed
KPH
gust
KPH
rain 1hr
cm
rain 24hr
cm
rain mn
cm
humidity
%
barometer
mb
20260508030015 13 170 0.0 6.4 0.00 0.00 0.00 77 1016.7
20260508024530 13 195 1.6 6.4 0.00 0.00 0.00 76 1016.7
20260508023022 14 163 1.6 8.0 0.00 0.00 0.00 77 1016.6
20260508021513 14 171 1.6 6.4 0.00 0.00 0.00 76 1016.8
20260508020011 14 193 1.6 8.0 0.00 0.00 0.00 76 1016.7
20260508014510 15 193 3.2 11.3 0.00 0.00 0.00 76 1016.9
20260508013008 15 142 3.2 8.0 0.00 0.00 0.00 74 1017.1
20260508011506 15 144 4.8 14.5 0.00 0.00 0.00 75 1017.2
20260508010005 15 351 3.2 8.0 0.00 0.00 0.00 74 1017.3
20260508004504 15 144 3.2 14.5 0.00 0.00 0.00 74 1017.5
20260508003005 15 181 3.2 9.7 0.00 0.00 0.00 77 1017.5
20260508001503 15 159 1.6 9.7 0.00 0.00 0.00 76 1017.4
20260508000002 15 162 3.2 9.7 0.00 0.00 0.00 73 1017.4
20260507234502 15 202 4.8 11.3 0.00 0.00 0.00 73 1017.5
20260507233100 15 205 4.8 11.3 0.00 0.00 0.00 72 1017.5
20260507231601 16 191 3.2 11.3 0.00 0.00 0.00 72 1017.6
20260507230104 15 184 3.2 11.3 0.00 0.00 0.00 73 1017.7
20260507224600 15 207 6.4 14.5 0.00 0.00 0.00 73 1017.9
20260507223056 15 203 6.4 12.9 0.00 0.00 0.00 73 1017.9
20260507221554 15 156 3.2 12.9 0.00 0.00 0.00 74 1018.1
20260507220152 16 175 4.8 12.9 0.00 0.00 0.00 72 1018.3
20260507214602 16 178 4.8 14.5 0.00 0.00 0.00 72 1018.6
20260507213046 16 183 4.8 12.9 0.00 0.00 0.00 72 1018.8
20260507211549 16 171 4.8 12.9 0.00 0.00 0.00 73 1018.9
20260507210045 16 209 3.2 8.0 0.00 0.00 0.00 74 1019.1
20260507204543 15 185 3.2 9.7 0.00 0.00 0.00 76 1019.3
20260507203056 15 151 6.4 12.9 0.00 0.00 0.00 75 1019.6
20260507201551 15 144 4.8 14.5 0.00 0.00 0.00 77 1019.8
20260507200053 15 159 4.8 14.5 0.00 0.00 0.00 76 1019.8
20260507194539 15 155 1.6 11.3 0.00 0.00 0.00 78 1019.8
20260507193044 15 198 3.2 11.3 0.00 0.00 0.00 76 1019.9
20260507191534 15 185 3.2 8.0 0.00 0.00 0.00 76 1020.0
20260507190032 13 193 1.6 8.0 0.00 0.00 0.00 79 1020.1
20260507184530 13 184 1.6 8.0 0.00 0.00 0.00 77 1020.3
20260507183030 13 171 3.2 8.0 0.00 0.00 0.00 78 1020.3
20260507181532 13 175 3.2 11.3 0.00 0.00 0.00 78 1020.4
20260507180036 12 169 3.2 9.7 0.00 0.00 0.00 77 1020.4
20260507174528 13 153 1.6 8.0 0.00 0.00 0.00 78 1020.5
20260507173032 13 153 1.6 8.0 0.00 0.00 0.00 75 1020.4
20260507171528 13 170 3.2 6.4 0.00 0.00 0.00 73 1020.4
20260507170028 13 194 0.0 6.4 0.00 0.00 0.00 75 1020.4
20260507164526 13 163 0.0 6.4 0.00 0.00 0.00 75 1020.3
20260507163022 13 186 1.6 8.0 0.00 0.00 0.00 77 1020.4
20260507161521 12 199 1.6 4.8 0.00 0.00 0.00 76 1020.4
20260507160020 13 196 1.6 8.0 0.00 0.00 0.00 75 1020.4
20260507154515 12 182 1.6 12.9 0.00 0.00 0.00 78 1020.6
20260507153012 12 165 3.2 9.7 0.00 0.00 0.00 78 1020.7
20260507151511 11 209 0.0 3.2 0.00 0.00 0.00 80 1020.6
20260507150019 11 171 1.6 9.7 0.00 0.00 0.00 83 1020.6
20260507144513 11 166 1.6 8.0 0.00 0.00 0.00 84 1020.7
20260507143001 11 150 3.2 8.0 0.00 0.00 0.00 84 1020.5
20260507141604 11 179 0.0 4.8 0.00 0.00 0.00 84 1020.5
20260507140101 11 161 0.0 4.8 0.00 0.00 0.00 84 1020.5
20260507134604 11 181 0.0 3.2 0.00 0.00 0.00 83 1020.5
20260507133123 11 181 0.0 3.2 0.00 0.00 0.00 83 1020.4
20260507131555 11 181 0.0 3.2 0.00 0.00 0.00 82 1020.3
20260507130105 11 181 0.0 0.0 0.00 0.00 0.00 81 1020.3
20260507124550 11 181 0.0 4.8 0.00 0.00 0.00 81 1020.3
20260507123053 11 178 0.0 1.6 0.00 0.00 0.00 81 1020.3
20260507121604 11 178 0.0 6.4 0.00 0.00 0.00 79 1020.5
20260507120057 11 173 1.6 8.0 0.00 0.00 0.00 80 1020.5
20260507114632 11 150 1.6 6.4 0.00 0.00 0.00 80 1020.6
20260507113047 11 182 1.6 8.0 0.00 0.00 0.00 80 1020.6
20260507111548 11 154 3.2 8.0 0.00 0.00 0.00 81 1020.7
20260507110045 11 153 1.6 11.3 0.00 0.00 0.00 80 1020.6
20260507104544 11 192 3.2 14.5 0.00 0.00 0.00 80 1020.5
20260507103044 11 165 1.6 12.9 0.00 0.00 0.00 80 1020.5
20260507101546 11 169 1.6 6.4 0.00 0.00 0.00 80 1020.6
20260507100042 11 135 1.6 8.0 0.00 0.00 0.00 80 1020.5
20260507094540 11 155 4.8 12.9 0.00 0.00 0.00 80 1020.5
20260507093041 11 219 1.6 14.5 0.00 0.00 0.00 80 1020.6
20260507091544 11 157 3.2 14.5 0.00 0.00 0.00 81 1020.5
20260507090038 11 202 6.4 14.5 0.00 0.00 0.00 80 1020.6
20260507084536 11 160 4.8 11.3 0.00 0.00 0.00 80 1020.6
20260507083034 11 183 1.6 12.9 0.00 0.00 0.00 81 1020.6
20260507081531 11 152 3.2 12.9 0.00 0.00 0.00 81 1020.6
20260507080030 11 169 4.8 16.1 0.00 0.00 0.00 80 1020.5
20260507074528 11 186 6.4 19.3 0.00 0.00 0.00 80 1020.4
20260507073027 12 202 3.2 16.1 0.00 0.00 0.00 80 1020.3
20260507071524 12 188 4.8 17.7 0.00 0.00 0.00 79 1020.3
20260507070028 12 175 6.4 20.9 0.00 0.00 0.00 79 1020.1
20260507064524 12 146 3.2 22.5 0.00 0.00 0.00 81 1020.0
20260507063020 12 144 4.8 14.5 0.00 0.00 0.00 81 1019.9
20260507061521 12 130 6.4 17.7 0.00 0.00 0.00 81 1019.9
20260507060019 12 165 4.8 12.9 0.00 0.00 0.00 81 1019.9
20260507054524 12 183 3.2 12.9 0.00 0.00 0.00 82 1019.8
20260507053018 12 179 4.8 17.7 0.00 0.00 0.00 82 1019.8
20260507051518 12 166 6.4 19.3 0.00 0.00 0.00 82 1019.8
20260507050022 12 155 3.2 11.3 0.00 0.00 0.00 81 1020.0
20260507044517 12 184 3.2 12.9 0.00 0.00 0.00 80 1020.0
20260507043022 12 183 6.4 14.5 0.00 0.00 0.00 80 1019.9
20260507041517 12 179 1.6 12.9 0.00 0.00 0.00 81 1019.8
20260507040015 12 157 4.8 14.5 0.00 0.00 0.00 81 1019.9
20260507034515 12 163 3.2 12.9 0.00 0.00 0.00 81 1019.8
20260507033014 12 157 6.4 16.1 0.00 0.00 0.00 81 1019.8
20260507031514 12 197 1.6 12.9 0.00 0.00 0.00 83 1019.6